Powrót do katalogu

XINGWANG JISHU SW 10-02

AktywnyKrótkofalarstwoVLEO
NORAD 69321·PAYLOAD·🇨🇳 China
Ta nazwa satelity nie została jeszcze potwierdzona przez oficjalne źródła.

Wystrzelony May 30, 2026 z Xichang Satellite Launch Center

Loading…

Następne Przeloty (najbliższe 24 godziny)

TLE

ŚwieżeSource: Space-Track

Epoka: Sep 14, 2026, 15:00 UTC

1 69321U 26120B   26257.62566416  .00005399  00000-0  17951-3 0  9992
2 69321  54.9980 346.1869 0008973 160.0690 200.0687 15.32779533 16447

Śledź XINGWANG JISHU SW 10-02 w czasie rzeczywistym z AllMySat

Download on the App Store